User: anonymous   Login
Location: Ostrava
(49.8330°N, 18.2830°E)
Time: 06:23:58
(UTC+02:00)
Language:

Lacrosse 5 - Orbit

View from above orbital plane
View from above orbital plane
View from above satellite
View from above satellite

Ground track
Ground track

The orbit data is extracted from the following two-line orbital elements,

1 28646U 05016A   15144.89190925 0.00000000  00000-0  00000-0 0    09
2 28646  57.0110  61.1806 0006000 169.5054 190.4946 14.52253032    00
Epoch (UTC): 24 May 2015 21:24:20
Eccentricity: 0.0006000
inclination: 57.0110°
perigee height: 714 km
apogee height: 722 km
right ascension of ascending node: 61.1806°
argument of perigee: 169.5054°
revolutions per day: 14.52253032
mean anomaly at epoch: 190.4946°
orbit number at epoch: 0

The dashed part of the orbit path shows where the satellite is in the earth's shadow,  

DLR